Temperature
5 6 6 7 7 7 8 8 8 8 9 9 9 9 10 10 10 10 10 10 11 11 11 11 11 11 11 11 11 11 11 11 11 11 11 11 11 11 11 11 11 11 11
5 5 6 6 6 7 7 7 7 8 8 8 9 9 9 10 10 10 10 10 10 10 10 11 11 11 11 11 11 11 11 11 11 11 10 10 10 10 10 10 10 10 10
4 4 5 5 6 6 6 6 7 7 7 8 8 8 9 9 9 9 9 9 10 10 10 10 10 10 10 11 11 11 11 11 11 11 11 10 10 10 10 10 10 10 10
3 4 4 5 5 5 5 6 6 6 7 7 7 8 8 8 9 9 9 9 9 9 9 10 10 10 10 10 10 10 11 11 11 10 10 11 11 10 9 9 9 9 10
2 3 3 4 4 5 5 5 5 6 6 6 7 7 8 8 8 8 9 9 9 9 9 9 9 10 10 10 10 10 10 10 11 10 10 10 10 10 10 9 9 9 9
2 2 3 4 4 4 5 5 5 5 6 6 6 6 7 7 8 8 8 8 8 8 9 9 9 9 9 9 10 10 10 10 10 10 10 10 10 10 10 10 9 9 9
1 1 2 3 3 4 4 4 4 5 5 5 6 6 6 7 7 8 8 8 8 8 8 9 9 9 9 9 9 9 9 9 10 10 10 10 10 10 10 10 9 8 8
-0 0 1 2 2 3 3 3 4 4 4 5 5 5 6 6 7 7 7 8 8 8 8 8 8 8 8 9 9 9 9 9 9 9 9 9 10 10 10 10 9 8 8
-1 -1 0 1 1 2 2 3 3 3 4 4 4 5 5 6 6 7 7 7 7 7 8 8 8 8 8 8 8 8 9 9 9 9 9 9 9 9 9 9 9 9 8
-2 -2 -1 -0 0 1 1 2 2 3 3 4 4 4 5 5 6 6 6 6 7 7 7 7 8 8 8 8 8 8 8 8 8 8 8 8 8 8 9 9 8 8 8
-3 -2 -2 -1 -1 0 1 1 2 2 3 3 3 4 4 5 5 6 6 6 6 6 7 7 7 7 7 7 8 8 8 7 8 8 8 8 8 8 8 8 8 8 8
-3 -3 -2 -2 -1 -0 -0 0 1 1 2 2 3 3 4 4 5 5 5 6 6 6 6 6 6 7 7 7 7 7 7 7 7 8 8 8 7 7 7 7 7 7 7
-4 -3 -3 -2 -2 -2 -1 -1 -0 0 1 1 2 2 3 4 4 4 5 5 5 5 6 6 6 6 6 6 7 7 7 7 7 7 7 7 7 7 7 7 7 7 7
-4 -4 -4 -3 -3 -2 -2 -1 -1 -0 0 1 1 2 2 3 3 4 4 4 5 5 5 6 6 6 6 6 6 6 7 7 7 7 7 7 7 7 7 7 7 6 6
-5 -5 -4 -4 -3 -3 -3 -2 -2 -1 -1 -0 0 1 1 2 3 3 3 4 4 4 5 5 5 5 5 6 6 6 6 6 6 6 6 6 7 6 6 6 6 6 6
-6 -5 -5 -5 -4 -4 -3 -3 -2 -2 -1 -1 -0 0 1 1 2 3 3 3 4 4 4 4 4 5 5 5 5 6 6 6 6 6 6 6 6 6 6 6 6 6 6
-6 -6 -5 -5 -5 -4 -4 -4 -3 -2 -2 -1 -1 -1 -0 0 1 2 2 2 3 3 3 4 4 4 4 4 5 5 5 5 5 5 5 5 5 5 5 5 5 5 5
-6 -6 -6 -5 -5 -5 -4 -4 -3 -3 -2 -2 -2 -1 -1 -0 0 1 1 2 2 2 3 3 3 3 4 4 4 4 4 4 5 5 5 5 5 5 5 5 5 5 5
-7 -6 -6 -6 -6 -5 -5 -4 -4 -3 -3 -3 -2 -2 -2 -1 -0 0 1 1 1 2 2 2 3 3 3 3 3 4 4 4 4 4 4 4 4 4 4 4 4 4 4
-7 -7 -6 -6 -6 -5 -5 -5 -5 -4 -4 -3 -3 -2 -2 -2 -1 -1 -0 0 1 1 1 1 2 2 3 3 3 3 3 3 3 3 3 3 3 3 3 4 4 4 4
-7 -7 -7 -6 -6 -6 -6 -5 -5 -5 -4 -4 -3 -3 -2 -2 -2 -1 -0 -0 0 0 1 1 1 2 2 2 2 2 2 2 2 2 3 3 3 3 3 3 3 3 3
-7 -7 -7 -7 -6 -6 -6 -6 -5 -5 -5 -4 -4 -3 -3 -2 -2 -1 -1 -1 -0 -0 0 0 1 1 1 1 2 2 2 2 2 2 2 2 2 2 2 2 2 2 2
-8 -8 -8 -7 -7 -6 -6 -6 -6 -5 -5 -4 -4 -4 -3 -3 -2 -2 -2 -1 -1 -1 -1 -0 -0 0 0 1 1 1 1 1 1 1 1 1 1 1 1 1 1 1 1
-8 -8 -8 -7 -7 -7 -7 -7 -6 -6 -5 -5 -5 -4 -4 -3 -3 -3 -2 -2 -2 -2 -1 -1 -1 -1 -0 -0 0 0 0 0 0 1 1 1 0 0 0 0 0 0 0
-8 -8 -8 -8 -7 -7 -7 -7 -7 -6 -6 -5 -5 -5 -4 -4 -4 -3 -3 -3 -2 -2 -2 -2 -2 -1 -1 -1 -0 -0 -0 -0 -0 -0 -0 -0 -0 -0 -0 -0 -0 -0 -0
-8 -8 -8 -8 -8 -8 -7 -7 -7 -7 -6 -6 -6 -6 -5 -5 -5 -4 -4 -4 -3 -3 -3 -2 -2 -2 -2 -1 -1 -1 -1 -1 -1 -1 -1 -1 -1 -1 -1 -1 -1 -1 -1
Wind_Speed
4 4 4 4 4 3 2 1 1 1 1 2 3 4 4 4 3 4 6 8 8 9 9 7 7 6 5 6 6 6 6 4 5 5 4 4 4 4 3 3 4 4 5
5 5 4 4 3 3 2 0 0 0 1 1 3 4 5 4 4 3 5 7 8 8 8 7 6 6 5 6 6 6 4 3 3 4 4 2 2 2 3 2 2 3 4
4 4 4 4 3 3 3 2 1 1 1 1 1 1 2 2 2 3 3 4 7 8 8 8 7 6 5 6 7 6 6 5 2 2 4 4 3 1 1 1 1 1 2
4 4 5 5 4 3 3 2 2 1 1 1 1 2 4 4 4 5 4 4 6 7 8 8 7 6 5 6 6 5 4 6 5 2 1 2 4 4 2 0 1 1 1
4 4 4 4 5 4 4 3 2 2 1 1 1 2 3 3 3 4 4 4 4 5 7 8 7 6 5 5 6 5 4 4 5 3 2 2 2 2 3 2 1 0 0
5 5 5 5 5 5 5 4 3 3 2 1 1 3 4 3 4 5 6 5 4 3 4 6 6 6 5 6 6 6 6 4 4 3 3 3 3 3 3 3 2 2 1
6 6 7 7 7 6 6 5 4 4 4 2 2 3 4 5 6 7 7 6 4 3 5 4 5 5 5 7 7 6 6 5 5 4 3 3 2 3 3 4 3 1 1
7 6 6 6 6 7 6 5 5 5 4 3 3 3 3 4 4 5 6 7 6 5 6 5 6 6 6 6 6 5 5 4 5 5 4 3 2 3 3 4 4 2 1
9 8 7 6 6 6 6 5 5 5 5 4 3 3 3 3 4 4 5 5 5 5 5 5 5 5 6 6 5 5 5 5 5 5 5 3 3 3 3 4 5 5 4
9 9 8 7 7 6 6 4 4 4 5 5 3 3 4 3 3 4 5 5 5 5 6 6 5 5 5 5 5 4 5 5 5 4 5 4 3 3 3 3 3 3 4
8 8 8 7 7 6 6 5 4 5 5 5 5 3 4 3 2 2 3 5 5 6 7 7 6 6 6 5 5 5 5 6 5 4 5 5 4 3 3 3 3 3 3
7 8 7 7 7 7 6 5 5 5 5 5 5 4 3 3 2 2 3 3 5 6 6 6 6 6 6 6 6 6 6 6 6 6 5 5 4 5 4 4 4 4 3
8 8 8 8 8 8 7 7 6 5 5 5 5 4 4 3 2 2 3 3 4 5 5 6 7 7 6 6 7 6 6 6 6 6 6 6 6 6 4 4 4 4 3
7 8 8 8 8 8 8 7 7 6 5 5 5 4 4 4 3 2 2 3 3 4 5 6 6 6 6 6 6 6 6 5 5 6 6 6 7 7 6 5 5 4 4
9 9 9 8 9 9 8 8 8 7 6 5 5 5 5 4 3 2 2 2 3 4 4 5 5 5 6 6 6 6 6 6 5 5 5 5 6 7 7 5 6 6 5
9 9 9 9 9 9 9 9 8 8 6 5 5 5 5 5 3 2 2 2 3 3 4 4 5 5 5 6 7 7 6 6 6 5 4 4 5 6 6 7 7 8 7
9 9 9 9 9 9 8 8 8 8 6 6 5 5 5 5 4 3 2 3 3 3 3 4 4 5 5 6 7 7 6 6 6 6 5 4 4 4 4 4 5 5 6
9 10 9 9 9 8 8 8 8 7 6 6 6 5 5 4 4 3 3 3 3 3 3 4 4 4 4 5 7 7 5 5 5 5 6 6 5 5 6 5 4 3 2
8 8 8 8 8 8 8 8 8 7 6 6 6 6 5 5 4 4 4 3 3 3 3 3 4 4 3 4 6 6 5 4 4 4 4 5 5 7 7 6 5 4 2
8 8 8 8 8 9 8 8 8 7 7 7 7 6 5 4 5 5 4 3 3 3 3 3 3 3 3 4 5 5 4 5 4 3 3 5 6 7 8 6 6 6 4
8 8 8 7 8 8 8 8 8 8 8 7 7 5 5 4 4 4 3 3 3 3 2 2 2 2 3 4 5 6 4 5 5 4 3 3 6 7 7 6 5 7 5
8 8 7 8 8 8 7 8 8 9 8 7 6 5 5 4 3 2 2 2 3 3 3 2 1 1 2 2 4 6 5 5 5 4 3 3 6 6 6 5 5 6 5
8 7 7 8 8 8 7 8 9 9 8 6 5 5 5 3 3 2 1 1 2 2 2 2 2 2 1 1 3 5 6 5 3 3 5 5 6 5 4 5 6 5 4
7 7 7 8 9 8 8 7 9 8 7 5 5 4 4 4 3 2 1 1 1 2 2 2 2 2 1 2 2 3 3 4 3 3 4 5 5 4 3 3 3 3 3
7 6 6 7 8 8 8 9 8 6 5 5 5 4 3 3 3 3 2 2 1 2 3 3 2 3 3 3 3 3 3 4 4 5 3 3 3 3 2 2 2 2 3
7 6 6 7 8 8 8 8 7 5 4 5 5 4 3 3 3 2 3 4 2 1 1 1 1 2 2 2 3 3 4 5 7 5 4 4 4 4 4 3 3 2 3
Wind_Direction
322 356 11 13 17 26 50 95 100 118 126 168 181 175 177 181 182 175 175 170 166 161 157 155 156 154 155 155 145 137 128 124 126 108 89 57 51 61 66 88 103 105 117
344 352 0 15 14 13 2 355 122 263 187 210 209 196 184 185 187 178 175 171 170 167 162 158 161 161 152 149 151 142 139 146 149 136 126 108 39 31 39 60 100 106 112
327 332 343 352 1 2 338 322 269 261 256 274 218 167 153 150 163 181 186 178 173 175 168 167 163 162 161 164 166 160 155 162 169 153 145 153 186 180 7 37 66 90 101
340 338 342 344 345 334 326 316 311 278 234 194 182 183 186 186 194 192 190 184 175 176 175 171 167 164 165 168 174 171 165 160 166 161 125 134 144 150 163 314 20 62 92
347 343 341 336 336 338 336 333 326 297 264 230 197 199 217 201 189 176 173 179 178 177 178 174 171 169 171 174 172 168 169 166 166 162 145 116 99 111 145 178 211 4 347
349 348 348 352 351 352 352 350 343 323 303 276 220 208 209 203 185 180 181 183 184 182 182 180 178 177 176 179 177 173 173 172 163 158 147 151 154 164 151 167 182 194 243
354 354 357 356 350 349 350 348 347 331 325 303 263 243 218 204 197 192 191 186 187 192 193 191 188 183 184 182 176 173 178 173 169 173 170 166 170 153 147 146 158 175 216
355 350 346 345 344 340 342 344 340 330 328 308 275 282 243 217 212 206 198 194 195 199 192 195 196 193 186 181 174 173 182 177 180 181 175 169 174 159 156 157 153 155 202
350 346 341 340 339 337 333 334 333 328 330 322 298 285 265 232 222 215 206 198 193 192 190 190 193 191 184 179 174 179 184 182 188 189 184 180 183 175 168 157 160 161 186
347 344 341 338 335 331 328 328 334 326 326 327 312 293 284 256 237 212 206 201 193 186 184 185 184 186 184 180 178 182 180 182 190 189 183 188 186 175 167 167 168 163 170
340 338 335 335 335 338 339 338 338 337 335 329 319 299 292 271 249 223 213 202 192 187 187 187 188 187 186 185 184 190 187 188 191 190 189 196 185 182 178 170 167 165 160
334 332 331 338 345 345 343 339 330 327 324 320 313 298 296 277 248 242 227 206 194 193 190 185 188 192 191 190 192 193 193 193 195 195 192 201 190 190 181 178 184 180 174
337 338 342 345 344 343 343 337 330 320 317 315 313 310 307 290 260 250 246 225 204 192 191 189 191 194 195 196 199 195 196 199 200 196 196 201 193 200 190 184 190 187 176
334 340 343 341 340 339 338 335 327 323 316 314 312 309 304 290 275 256 255 239 216 198 193 194 195 193 195 199 200 194 196 202 206 203 200 200 200 203 195 192 193 183 174
338 340 340 337 336 336 335 331 326 319 311 306 304 301 303 291 281 261 256 247 221 206 197 192 195 195 195 199 196 195 199 202 206 207 205 204 202 200 197 193 189 180 178
332 333 335 335 334 331 328 326 322 320 311 294 288 297 301 294 287 271 260 256 235 210 196 194 194 197 203 204 203 201 196 198 204 206 205 203 195 195 194 194 188 186 184
327 328 328 326 324 322 320 317 314 318 317 307 295 295 292 285 283 273 262 254 240 215 201 203 200 199 204 203 203 202 199 195 204 205 199 201 198 185 181 187 186 194 199
329 327 325 324 322 322 322 320 317 317 314 309 305 300 288 279 282 269 255 256 240 214 204 208 209 204 205 200 199 196 197 193 199 201 198 199 197 195 185 175 176 185 201
317 316 317 315 320 323 323 322 322 322 322 317 308 303 287 277 275 263 255 252 235 221 208 211 202 202 209 202 202 194 184 187 195 197 195 193 193 195 182 173 173 176 187
317 317 319 322 325 326 327 326 325 325 320 313 308 302 287 274 267 259 254 248 227 218 212 217 205 199 205 204 198 192 181 181 184 184 190 195 192 187 182 181 177 185 190
317 320 321 321 321 323 327 326 326 321 315 315 317 309 294 278 270 265 254 234 217 208 202 200 213 209 209 197 190 191 186 182 178 185 191 193 187 185 186 189 188 189 174
320 323 323 319 320 326 327 324 320 317 320 322 319 315 307 296 294 282 266 229 201 197 193 187 216 227 209 196 191 190 192 185 179 185 184 183 179 178 179 182 177 166 153
317 320 319 318 321 327 328 321 316 320 322 324 326 323 323 325 324 309 281 251 205 190 196 192 201 223 218 200 201 191 186 183 180 170 166 166 169 170 173 175 167 159 156
316 321 323 322 321 326 326 319 319 324 326 332 332 331 337 342 344 333 309 263 220 204 201 202 205 208 212 196 189 179 171 166 161 150 143 147 149 142 143 155 165 167 169
316 320 319 317 318 324 326 327 328 335 344 344 343 341 342 342 344 340 324 294 258 222 215 215 211 203 211 213 195 176 175 169 165 147 136 141 147 150 152 147 146 152 154
315 319 319 320 319 323 326 328 334 345 349 346 346 346 345 344 344 344 344 349 313 321 306 261 227 227 219 194 180 174 167 163 161 155 163 169 169 171 174 173 170 173 173
Height
1508 1508 1508 1508 1508 1509 1510 1511 1512 1514 1515 1517 1519 1521 1523 1525 1528 1531 1533 1535 1537 1539 1542 1544 1546 1549 1551 1553 1556 1558 1560 1563 1565 1566 1568 1571 1572 1573 1574 1574 1575 1576 1576
1505 1506 1506 1506 1506 1507 1508 1508 1509 1511 1512 1514 1516 1518 1520 1522 1525 1527 1529 1532 1534 1536 1539 1541 1543 1546 1548 1551 1553 1556 1558 1560 1562 1564 1566 1569 1572 1571 1572 1573 1574 1574 1575
1505 1504 1504 1504 1504 1505 1505 1506 1507 1508 1510 1511 1513 1516 1518 1519 1521 1523 1526 1528 1531 1533 1535 1538 1541 1543 1545 1548 1550 1553 1555 1557 1560 1562 1564 1566 1567 1569 1571 1571 1572 1573 1574
1504 1504 1503 1503 1503 1504 1504 1504 1505 1506 1508 1509 1510 1511 1513 1514 1516 1519 1522 1525 1528 1530 1532 1535 1537 1540 1542 1545 1547 1550 1553 1555 1557 1559 1561 1564 1564 1566 1568 1570 1570 1571 1572
1504 1503 1503 1502 1502 1502 1503 1503 1503 1503 1505 1506 1507 1509 1511 1513 1515 1517 1519 1522 1524 1527 1529 1531 1534 1536 1539 1541 1544 1547 1549 1552 1554 1556 1558 1560 1561 1563 1564 1566 1568 1569 1570
1503 1502 1502 1501 1501 1501 1501 1501 1500 1500 1501 1503 1504 1506 1507 1509 1511 1513 1515 1518 1520 1523 1525 1528 1531 1533 1535 1538 1540 1543 1546 1549 1551 1553 1555 1557 1558 1560 1561 1563 1564 1566 1568
1502 1500 1500 1499 1499 1498 1498 1498 1498 1498 1498 1499 1501 1503 1504 1506 1507 1509 1512 1514 1516 1518 1521 1524 1527 1529 1532 1535 1538 1540 1543 1545 1547 1550 1552 1554 1556 1558 1559 1561 1561 1563 1564
1502 1500 1499 1498 1497 1497 1496 1496 1496 1496 1496 1497 1498 1499 1501 1502 1504 1506 1508 1510 1512 1515 1518 1521 1523 1526 1529 1531 1534 1536 1539 1542 1544 1546 1549 1551 1553 1555 1556 1558 1559 1560 1561
1501 1500 1498 1497 1496 1495 1494 1494 1494 1494 1494 1495 1495 1496 1497 1499 1501 1503 1505 1507 1509 1512 1514 1517 1520 1522 1525 1527 1530 1533 1535 1538 1541 1543 1545 1547 1549 1551 1553 1555 1556 1558 1557
1501 1499 1497 1496 1494 1493 1492 1492 1492 1492 1492 1492 1493 1493 1494 1496 1497 1499 1502 1504 1506 1508 1511 1513 1516 1518 1521 1524 1526 1529 1532 1534 1537 1539 1541 1543 1545 1547 1549 1550 1552 1553 1555
1502 1499 1497 1495 1493 1491 1490 1490 1489 1489 1489 1489 1490 1491 1492 1493 1495 1496 1498 1500 1502 1504 1507 1509 1512 1514 1517 1520 1523 1525 1528 1531 1533 1535 1537 1539 1541 1543 1545 1546 1548 1549 1551
1502 1499 1496 1493 1490 1488 1487 1486 1486 1486 1486 1486 1487 1488 1488 1490 1491 1492 1494 1496 1499 1501 1503 1506 1508 1511 1513 1516 1519 1521 1524 1526 1529 1531 1533 1535 1537 1539 1541 1542 1544 1545 1547
1500 1497 1494 1491 1488 1486 1484 1483 1483 1483 1483 1483 1483 1483 1484 1485 1487 1488 1490 1492 1495 1497 1500 1502 1504 1506 1509 1512 1515 1517 1520 1522 1525 1527 1529 1531 1533 1535 1536 1538 1540 1541 1542
1498 1495 1492 1489 1487 1484 1482 1481 1480 1479 1479 1479 1479 1479 1480 1481 1482 1484 1486 1488 1490 1493 1495 1497 1500 1502 1505 1508 1511 1513 1515 1518 1521 1523 1525 1526 1528 1530 1532 1534 1535 1537 1538
1497 1494 1491 1488 1485 1483 1481 1479 1477 1477 1476 1476 1476 1476 1476 1477 1478 1479 1481 1483 1486 1488 1490 1493 1495 1498 1501 1503 1506 1509 1511 1514 1517 1519 1520 1522 1524 1525 1528 1529 1531 1532 1533
1496 1493 1490 1487 1484 1481 1479 1477 1475 1473 1473 1472 1472 1472 1473 1473 1473 1475 1477 1479 1481 1483 1486 1488 1491 1493 1496 1498 1501 1504 1507 1509 1512 1514 1516 1517 1519 1521 1523 1525 1526 1528 1529
1495 1492 1488 1485 1483 1480 1477 1474 1472 1470 1469 1469 1469 1469 1469 1469 1469 1471 1473 1474 1476 1478 1480 1483 1486 1488 1491 1494 1496 1499 1502 1504 1507 1509 1510 1512 1514 1516 1518 1519 1521 1522 1524
1493 1490 1487 1484 1481 1478 1475 1472 1470 1468 1466 1465 1464 1465 1465 1465 1466 1467 1468 1470 1472 1474 1476 1478 1481 1483 1486 1489 1491 1494 1497 1499 1502 1503 1505 1507 1509 1511 1513 1514 1516 1517 1518
1492 1488 1485 1482 1479 1476 1473 1470 1467 1465 1463 1461 1461 1461 1461 1461 1462 1463 1464 1466 1467 1469 1471 1474 1476 1479 1481 1483 1486 1489 1491 1494 1496 1498 1500 1502 1504 1506 1508 1509 1511 1512 1513
1490 1486 1483 1479 1476 1473 1470 1467 1464 1462 1460 1459 1457 1457 1457 1457 1458 1459 1460 1462 1464 1466 1468 1470 1472 1474 1476 1478 1481 1484 1486 1488 1490 1493 1495 1497 1499 1501 1503 1504 1506 1507 1508
1487 1483 1480 1476 1473 1470 1467 1464 1461 1459 1457 1455 1454 1454 1454 1454 1455 1455 1457 1458 1460 1462 1464 1466 1468 1470 1472 1474 1476 1479 1481 1483 1485 1487 1490 1492 1494 1496 1498 1499 1501 1502 1504
1483 1480 1477 1473 1470 1467 1464 1461 1458 1456 1454 1453 1451 1451 1451 1451 1451 1452 1454 1455 1457 1458 1460 1462 1464 1466 1468 1470 1472 1474 1477 1479 1481 1482 1484 1487 1489 1491 1493 1494 1496 1498 1500
1480 1477 1474 1470 1467 1465 1462 1458 1456 1454 1452 1450 1448 1448 1448 1448 1449 1449 1450 1452 1453 1455 1456 1458 1460 1462 1464 1466 1468 1471 1472 1474 1476 1478 1480 1482 1484 1486 1488 1490 1492 1493 1495
1477 1474 1471 1467 1464 1462 1459 1457 1454 1452 1449 1447 1446 1445 1445 1445 1446 1447 1447 1449 1450 1451 1453 1455 1457 1458 1460 1462 1464 1466 1468 1470 1472 1474 1476 1478 1480 1482 1484 1486 1487 1489 1491
1474 1472 1468 1465 1462 1460 1457 1454 1452 1450 1448 1446 1445 1444 1444 1443 1444 1444 1445 1446 1447 1448 1450 1452 1454 1455 1456 1458 1460 1461 1463 1466 1468 1470 1472 1473 1476 1477 1479 1481 1483 1485 1486
1472 1469 1466 1464 1461 1458 1455 1453 1450 1448 1446 1445 1444 1443 1442 1442 1442 1442 1443 1444 1445 1446 1448 1450 1451 1452 1454 1455 1457 1459 1460 1462 1464 1466 1467 1469 1471 1473 1475 1477 1479 1480 1482